Regional Weather Roundup
Issued by NWS

Home | Current Version | Previous Version | Graphics & Text | Print | Product List | Glossary On
Versions: 1 2 3 4 5 6 7 8 9 10 11 12 13 14 15 16 17 18 19 20 21 22 23 24 25 26 27 28 29 30 31 32 33 34 35 36 37 38 39 40 41 42 43 44 45 46
000
ASUS45 KSLC 252310
RWRUT

UTAH REGIONAL WEATHER ROUNDUP
NATIONAL WEATHER SERVICE SALT LAKE CITY UT
400 PM MST THU DEC 25 2014

UTZ001>011-023>025-260000-

NORTHERN UTAH

CITY           SKY/WX    TMP DP  RH WIND       PRES   REMARKS
BRIGHAM CITY   CLOUDY    30  25  82 N18       29.73R WCI  18
HILL AFB       LGT SNOW  28  28 100 W9        29.71R FOG     WCI  20
LOGAN          LGT SNOW  28  25  88 N15       29.72R VSB 3/4 WCI  16
OGDEN          LGT SNOW  30  27  88 NW5       29.71R FOG     WCI  25
PROVO AIRPORT  LGT SNOW  27  25  93 CALM      29.73R VSB 3/4
SALT LAKE CITY LGT SNOW  30  28  92 N5        29.73R FOG     WCI  25
VERNAL         CLOUDY    30  25  81 CALM      29.57R
WENDOVER       CLOUDY    30  21  69 NW18G25   29.81R WCI  18
HEBER CITY     CLOUDY    27  21  80 SW7       29.64R WCI  19
WEST JORDAN    CLOUDY    28  28 100 NW5       29.72R WCI  23

$$

UTZ012>022-026-027-260000-

SOUTHERN/CENTRAL UTAH

CITY           SKY/WX    TMP DP  RH WIND       PRES   REMARKS
BLANDING       MOCLDY    36  19  49 W14       29.63R WCI  27
BRYCE CANYON   CLOUDY    20  12  71 NW20      29.61S WCI   4
CEDAR CITY     FLURRIES  25  21  85 N6        29.71R WCI  18
DELTA          CLOUDY    28  25  91 NW5       29.75R WCI  22
MILFORD        PTSUNNY   25  19  78 N8        29.74R WCI  16
MOAB/CYNLANDS  LGT SNOW  30  28  92 W15       29.59R VSB 1   WCI  19
PRICE          CLOUDY    29  13  51 NW7       29.56R WCI  22
ST GEORGE      CLOUDY    41  18  38 NW15G24   29.78R
KANAB          CLOUDY    34  19  55 W8        29.72R WCI  27

$$

REGIONAL REPORTS     COLORADO/ARIZONA

CITY           SKY/WX    TMP DP  RH WIND       PRES   REMARKS
CRAIG, CO      LGT SNOW  28  24  85 W3        29.54R VSB 1
GRAND JUNCTION LGT SNOW  31  30  96 NW14      29.56R VSB 1   WCI  21
RIFLE          MOCLDY    33  29  85 SE6       29.53R WCI  28
MONTROSE       MOCLDY    36  24  62 N10       29.54R WCI  28
CORTEZ         CLOUDY    37  18  46 SW20G26   29.58R WCI  27
PAGE, AZ       CLOUDY    41  12  30 W13G28    29.64R
GRAND CANYON   FLURRIES  28  16  60 W7        29.65R WCI  21
KINGMAN        SUNNY     44   5  20 N22       29.79R
FLAGSTAFF      MOSUNNY   31  12  45 W12G22    29.64R WCI  22

$$

REGIONAL REPORTS    NEVADA/IDAHO/WYOMING

CITY           SKY/WX    TMP DP  RH WIND       PRES   REMARKS
LAS VEGAS, NV  MOSUNNY   50   7  17 NW14G24   29.78S
ELY            CLOUDY    24  13  62 NW23G31   29.76R WCI   9
ELKO           CLOUDY    28  16  60 NW13      29.87R WCI  17
POCATELLO, ID  MOCLDY    30  20  66 N12       29.78R WCI  20
BURLEY         CLOUDY    29  23  78 W15       29.80  WCI  18
EVANSTON, WY   LGT SNOW  22  18  85 NW8       29.60R FOG     WCI  12
ROCK SPRINGS   LGT SNOW  18  13  80 NE37G51   29.60R WCI  -3

$$


USA.gov is the U.S. government's official web portal to all federal, state and local government web resources and services.